Regional Weather Roundup
Issued by NWS New Orleans/Baton Rouge, LA

Home | Current Version | Previous Version | Text Only | Print | Product List | Glossary On
Versions: 1 2 3 4 5 6 7 8 9 10 11 12 13 14 15 16 17 18 19 20 21 22 23 24 25 26 27 28 29 30 31 32 33 34 35 36 37 38 39 40 41 42 43 44 45 46 47 48 49 50
951
ASUS44 KLIX 310805
RWRLIX
NEW ORLEANS REGIONAL WEATHER ROUNDUP
NATIONAL WEATHER SERVICE NEW ORLEANS LA
300 AM CDT SUN AUG 31 2014

NOTE: "FAIR" INDICATES FEW OR NO CLOUDS BELOW 12,000 FEET WITH NO
      SIGNIFICANT WEATHER AND/OR OBSTRUCTIONS TO VISIBILITY.
      SKY/WX - SKY CONDITION AND SIGNIFICANT WEATHER.
      TMP - AIR TEMPERATURE.     DP    - DEWPOINT TEMPERATURE.
      RH  - RELATIVE HUMIDITY.   PRES  - PRESSURE.
      HI  - HEAT INDEX.          WCI   - WIND CHILL INDEX.

*  THESE STATIONS ARE NOT NWS OR FAA STATIONS AND ARE NOT UNDER
   NWS QUALITY CONTROL.

LAZ038-040-048-061>063-065>067-069-310900-
SOUTHEAST LOUISIANA

CITY           SKY/WX    TMP DP  RH WIND       PRES   REMARKS
N.O. AUDUBON     N/A     77  77  99 MISG        N/A
N.O. INTL ARPT MOCLDY    76  73  91 CALM      30.03R
N.O. LAKEFRONT   N/A    N/A N/A N/A MISG      30.03S
N.O. DOWNTOWN*   N/A     84  72  65 SE5       30.03S
SLIDELL        PTCLDY    73  71  93 CALM      30.03S
BATON ROUGE    CLOUDY    73  71  93 NE5       30.03S
BOOTHVILLE     CLOUDY    83  79  88 SE7       30.03F
BELLE CHASSE   MOCLDY    78  73  84 SE5       30.02S
BOGALUSA*        N/A     74  70  88 CALM      30.05F
GALLIANO*      NOT AVBL
NEW ROADS*       N/A     73  72  98 CALM      30.03R
GONZALES*        N/A     73  73 100 CALM      30.02R
HAMMOND*       MOCLDY    73  72  94 CALM      30.05R
HOUMA*         PTCLDY    72  69  91 CALM      30.02S
PORT FOURCHON* SUNNY     81  77  89 E6        30.03F

$$

MSZ070-080>082-310900-
SOUTHERN MISSISSIPPI

CITY           SKY/WX    TMP DP  RH WIND       PRES   REMARKS
MCCOMB         MOCLDY    73  71  93 CALM      30.06R
GULFPORT       MOCLDY    76  74  93 SE3       30.04S
BILOXI         MOCLDY    83  78  86 S6        30.04S
PASCAGOULA     MOCLDY    74  74 100 CALM      30.05S

$$

COASTAL OBSERVATIONS
LAKE AND NEARSHORE STATIONS

STATION/POSITION TIME  TEMP    WIND        PRES    WAVE
                       AIR SEA DIR/SP/G            HT/PER
                 (UTC) (F)     (DEG/KT/KT) (MB)    (FT/S)
PASCAGOULA       0800   85     150/  6/ 10 1017.0
WAVELAND YACHT   0800   78      90/  4/  6 1016.5
GRAND ISLE       0800   81 84   70/  2/  3 1017.2
SOUTHWEST PASS   0800   85 90  150/ 12/ 17 1017.3
NEW CANAL        0800   76 80   CALM  /  3 1017.1
SHELL BEACH      0800   80 79  110/  8/  9 1016.7

OFFSHORE STATIONS

STATION/POSITION TIME  TEMP    WIND        PRES    WAVE
                       AIR SEA DIR/SP/G            HT/PER
                 (UTC) (F)     (DEG/KT/KT) (MB)    (FT/S)
64 S DAUPHIN ISL 0800   84     140/ 12       N/A

$$




USA.gov is the U.S. government's official web portal to all federal, state and local government web resources and services.